Meteo pe oră la Bolshie Smolyancy

Astăzi, 9 Mai, Duminică

Timp Temperatura Precipitaţii Vânt Presiune Umiditate
00:00 0°C° 0 mm 4 m/s 749 mmHg 83%
01:00 -1°C° 0 mm 4 m/s 749 mmHg 83%
02:00 -1°C° 0 mm 4 m/s 750 mmHg 83%
03:00 -1°C° 0 mm 3 m/s 750 mmHg 82%
04:00 -1°C° 0 mm 3 m/s 751 mmHg 81%
05:00 -1°C° 0 mm 3 m/s 751 mmHg 80%
06:00 +1°C° 0 mm 3 m/s 752 mmHg 72%
07:00 +3°C° 0 mm 3 m/s 752 mmHg 64%
08:00 +5°C° 0 mm 4 m/s 753 mmHg 56%
09:00 +6°C° 0 mm 4 m/s 753 mmHg 51%
10:00 +9°C° 0 mm 3 m/s 753 mmHg 46%
11:00 +10°C° 0 mm 3 m/s 754 mmHg 42%
12:00 +10°C° 0 mm 3 m/s 754 mmHg 40%
13:00 +11°C° 0 mm 3 m/s 754 mmHg 39%
14:00 +13°C° 0 mm 2 m/s 754 mmHg 37%
15:00 +13°C° 0 mm 2 m/s 754 mmHg 38%
16:00 +13°C° 0 mm 1 m/s 754 mmHg 39%
17:00 +13°C° 0 mm 1 m/s 754 mmHg 40%
18:00 +11°C° 0 mm 1 m/s 754 mmHg 48%
19:00 +8°C° 0 mm 2 m/s 755 mmHg 55%
20:00 +7°C° 0 mm 2 m/s 755 mmHg 63%
21:00 +6°C° 0 mm 2 m/s 755 mmHg 65%
22:00 +5°C° 0 mm 3 m/s 755 mmHg 68%
23:00 +4°C° 0 mm 3 m/s 756 mmHg 71%

Mâine, 10 Mai, Luni

Timp Temperatura Precipitaţii Vânt Presiune Umiditate
00:00 +4°C° 0 mm 3 m/s 756 mmHg 72%
01:00 +4°C° 0 mm 3 m/s 756 mmHg 73%
02:00 +4°C° 0 mm 3 m/s 756 mmHg 73%
03:00 +4°C° 0 mm 3 m/s 756 mmHg 72%
04:00 +5°C° 0 mm 3 m/s 756 mmHg 70%
05:00 +5°C° 0 mm 3 m/s 756 mmHg 69%
06:00 +6°C° 0 mm 4 m/s 757 mmHg 68%
07:00 +7°C° 0 mm 4 m/s 757 mmHg 68%
08:00 +8°C° 0 mm 4 m/s 757 mmHg 67%
09:00 +11°C° 0 mm 4 m/s 757 mmHg 62%
10:00 +13°C° 0 mm 5 m/s 757 mmHg 58%
11:00 +15°C° 0 mm 5 m/s 757 mmHg 53%
12:00 +16°C° 0 mm 5 m/s 757 mmHg 52%
13:00 +17°C° 0 mm 4 m/s 757 mmHg 51%
14:00 +18°C° 0 mm 4 m/s 757 mmHg 50%
15:00 +18°C° 0 mm 4 m/s 757 mmHg 53%
16:00 +18°C° 0 mm 4 m/s 757 mmHg 56%
17:00 +18°C° 0 mm 3 m/s 757 mmHg 59%
18:00 +16°C° 0 mm 3 m/s 757 mmHg 66%
19:00 +13°C° 0 mm 3 m/s 757 mmHg 73%
20:00 +11°C° 0 mm 3 m/s 757 mmHg 80%
21:00 +10°C° 0 mm 3 m/s 757 mmHg 81%
22:00 +9°C° 0 mm 3 m/s 757 mmHg 81%
23:00 +8°C° 0 mm 3 m/s 758 mmHg 82%

Poimâine, 11 Mai, Marţi

Timp Temperatura Precipitaţii Vânt Presiune Umiditate
00:00 +8°C° 0 mm 3 m/s 758 mmHg 82%
01:00 +7°C° 0 mm 3 m/s 758 mmHg 82%
02:00 +7°C° 0 mm 3 m/s 758 mmHg 81%
03:00 +7°C° 0 mm 3 m/s 758 mmHg 81%
04:00 +7°C° 0 mm 3 m/s 758 mmHg 80%
05:00 +5°C° 0 mm 3 m/s 758 mmHg 79%
06:00 +8°C° 0 mm 3 m/s 758 mmHg 73%
07:00 +10°C° 0 mm 3 m/s 758 mmHg 66%
08:00 +12°C° 0 mm 4 m/s 758 mmHg 60%
09:00 +14°C° 0 mm 4 m/s 758 mmHg 56%
10:00 +15°C° 0 mm 4 m/s 758 mmHg 52%
11:00 +17°C° 0 mm 4 m/s 758 mmHg 49%
12:00 +18°C° 0 mm 4 m/s 757 mmHg 48%
13:00 +18°C° 0 mm 4 m/s 757 mmHg 46%
14:00 +19°C° 0 mm 4 m/s 757 mmHg 45%
15:00 +19°C° 0 mm 4 m/s 757 mmHg 49%
16:00 +18°C° 0 mm 4 m/s 756 mmHg 52%
17:00 +18°C° 0 mm 4 m/s 756 mmHg 56%
18:00 +15°C° 0 mm 4 m/s 756 mmHg 63%
19:00 +13°C° 0 mm 3 m/s 756 mmHg 69%
20:00 +11°C° 0 mm 3 m/s 755 mmHg 76%
21:00 +11°C° 0 mm 3 m/s 755 mmHg 79%
22:00 +10°C° 0 mm 3 m/s 755 mmHg 81%
23:00 +9°C° 0 mm 3 m/s 755 mmHg 83%

12 Mai, Miercuri

Timp Temperatura Precipitaţii Vânt Presiune Umiditate
00:00 +9°C° 0 mm 3 m/s 755 mmHg 87%
01:00 +9°C° 0 mm 3 m/s 755 mmHg 90%
02:00 +9°C° 0 mm 2 m/s 755 mmHg 94%
03:00 +9°C° 0 mm 2 m/s 755 mmHg 94%
04:00 +9°C° 0 mm 2 m/s 755 mmHg 94%
05:00 +9°C° 0 mm 2 m/s 755 mmHg 95%
06:00 +11°C° 0 mm 3 m/s 754 mmHg 88%
07:00 +13°C° 0 mm 3 m/s 754 mmHg 80%
08:00 +15°C° 0 mm 4 m/s 754 mmHg 73%
09:00 +16°C° 0 mm 5 m/s 753 mmHg 70%
10:00 +17°C° 0 mm 5 m/s 753 mmHg 66%
11:00 +19°C° 0 mm 6 m/s 752 mmHg 63%
12:00 +19°C° 0.1 mm 5 m/s 752 mmHg 68%
13:00 +18°C° 0.1 mm 4 m/s 751 mmHg 74%
14:00 +18°C° 0.1 mm 3 m/s 750 mmHg 79%
15:00 +15°C° 1.6 mm 4 m/s 751 mmHg 83%
16:00 +13°C° 1.6 mm 5 m/s 751 mmHg 88%
17:00 +12°C° 1.6 mm 5 m/s 751 mmHg 93%
18:00 +10°C° 0 mm 5 m/s 751 mmHg 93%
19:00 +10°C° 0 mm 4 m/s 752 mmHg 93%
20:00 +9°C° 0 mm 3 m/s 752 mmHg 94%
21:00 +8°C° 0 mm 3 m/s 752 mmHg 94%
22:00 +8°C° 0 mm 3 m/s 752 mmHg 94%
23:00 +8°C° 0 mm 3 m/s 752 mmHg 95%

13 Mai, Joi

Timp Temperatura Precipitaţii Vânt Presiune Umiditate
00:00 +8°C° 0 mm 3 m/s 752 mmHg 95%
01:00 +7°C° 0 mm 3 m/s 751 mmHg 95%
02:00 +7°C° 0 mm 3 m/s 751 mmHg 95%
03:00 +6°C° 0 mm 4 m/s 751 mmHg 94%
04:00 +7°C° 0 mm 4 m/s 750 mmHg 93%
05:00 +7°C° 0 mm 4 m/s 750 mmHg 93%
06:00 +8°C° 0 mm 4 m/s 749 mmHg 90%
07:00 +9°C° 0 mm 5 m/s 748 mmHg 87%
08:00 +12°C° 0 mm 5 m/s 748 mmHg 84%
09:00 +12°C° 0.5 mm 5 m/s 747 mmHg 84%
10:00 +11°C° 0.5 mm 6 m/s 747 mmHg 85%
11:00 +11°C° 0.5 mm 6 m/s 746 mmHg 86%
12:00 +11°C° 0.6 mm 6 m/s 746 mmHg 82%
13:00 +13°C° 0.6 mm 6 m/s 746 mmHg 79%
14:00 +13°C° 0.6 mm 6 m/s 745 mmHg 76%
15:00 +13°C° 0.5 mm 6 m/s 745 mmHg 76%
16:00 +13°C° 0.5 mm 6 m/s 745 mmHg 77%
17:00 +13°C° 0.5 mm 5 m/s 745 mmHg 77%
18:00 +12°C° 0.1 mm 5 m/s 745 mmHg 81%
19:00 +11°C° 0.1 mm 4 m/s 745 mmHg 86%
20:00 +9°C° 0.1 mm 3 m/s 746 mmHg 90%
21:00 +8°C° 0 mm 4 m/s 746 mmHg 90%
22:00 +10°C° 0 mm 4 m/s 746 mmHg 90%
23:00 +9°C° 0 mm 5 m/s 746 mmHg 90%

14 Mai, Vineri

Timp Temperatura Precipitaţii Vânt Presiune Umiditate
00:00 +10°C° 0.1 mm 4 m/s 746 mmHg 91%
01:00 +10°C° 0.1 mm 4 m/s 746 mmHg 92%
02:00 +10°C° 0.1 mm 4 m/s 745 mmHg 94%
03:00 +10°C° 0.1 mm 4 m/s 745 mmHg 94%
04:00 +10°C° 0.1 mm 3 m/s 745 mmHg 94%
05:00 +10°C° 0.1 mm 3 m/s 745 mmHg 95%
06:00 +11°C° 0 mm 3 m/s 745 mmHg 91%
07:00 +11°C° 0 mm 3 m/s 745 mmHg 88%
08:00 +12°C° 0 mm 3 m/s 745 mmHg 85%
09:00 +13°C° 0 mm 3 m/s 745 mmHg 79%
10:00 +14°C° 0 mm 4 m/s 745 mmHg 74%
11:00 +15°C° 0 mm 4 m/s 745 mmHg 69%
12:00 +17°C° 0 mm 4 m/s 745 mmHg 67%
13:00 +18°C° 0 mm 4 m/s 745 mmHg 66%
14:00 +18°C° 0 mm 4 m/s 745 mmHg 64%
15:00 +18°C° 0.1 mm 3 m/s 745 mmHg 66%
16:00 +18°C° 0.1 mm 3 m/s 745 mmHg 67%
17:00 +18°C° 0.1 mm 2 m/s 745 mmHg 68%
18:00 +16°C° 0 mm 2 m/s 745 mmHg 74%
19:00 +15°C° 0 mm 1 m/s 745 mmHg 80%
20:00 +13°C° 0 mm 0 m/s 745 mmHg 86%
21:00 +13°C° 0 mm 1 m/s 745 mmHg 87%
22:00 +13°C° 0 mm 1 m/s 745 mmHg 88%
23:00 +12°C° 0 mm 1 m/s 745 mmHg 90%
Arată mai mult

Formular de consimțământ

Meteoprog și furnizorii noștri de servicii pot stoca și accesa date personale, precum cookies, identificatori de dispozitiv sau alte tehnologii similare pe dispozitivul dumneavoastră și procesa astfel de date pentru a personaliza conținutul și reclamele, dar și pentru a oferi caracteristici de social media și pentru a analiza traficul.

  • Stocarea și/sau accesarea informațiilor pe dispozitivul dumneavoastră

    Cookies, identificatori de dispozitiv sau alte informații pot fi stocate sau accesate pe dispozitiv în scopurile indicate mai sus.

  • Reclame și conținut personalizat, evaluarea reclamelor și a conținutului, informații despre audiențe și dezvoltarea produselor

    Reclamele și conținutul pot fi personalizate pe baza unui profil. Pot fi adăugate date suplimentare pentru a personaliza mai bine reclamele și conținutul. Performanța reclamelor și conținutului poate fi măsurată. Pot fi obținute informații despre utilizatorii care au văzut reclamele și conținutul. Aceste date pot fi utilizate pentru a dezvolta sau îmbunătăți experiența utilizatorilor, sistemele și software-ul.

Dând clic pe ‘Sunt de acord’, permiteți utilizarea cookie-urilor menționate, a identificatorilor de dispozitiv, balizelor web sau altor tehnologii similare. Setările pot fi modificate din browser-ul dispozitivului dumneavoastră.

În anumite scopuri, interesele legitime pot prima asupra consimțământului. Puteți citi mai multe informații în acest sens în Politica privind Confidențialitatea Datelor și Cookie.